Liberia, Costa Rica

12:48 AM CST on June 26, 2017 (GMT -0600)
Daniel Oduber Quiros International

Weather History for MRLB - June, 2012

Change the Weather History Date:

Sunday, June 10, 2012

  Actual Average Record
Temperature  
Mean Temperature 80 °F -  
Max Temperature 91 °F 86 °F 93 °F (1997)
Min Temperature 70 °F 75 °F 69 °F (2016)
Cooling Degree Days 16    
Growing Degree Days 30 (Base 50)    
Moisture  
Dew Point 74 °F    
Average Humidity 72    
Maximum Humidity 89    
Minimum Humidity 52    
Precipitation  
Precipitation 0.00 in - - ()
Sea Level Pressure  
Sea Level Pressure 29.78 in    
Wind  
Wind Speed 4 mph ()    
Max Wind Speed 9 mph    
Max Gust Speed -    
Visibility 7.7 miles    
Events      
Averages and records for this station are not official NWS values.
T = Trace of Precipitation, MM = Missing Value Source: Averaged Metar Reports

Daily Weather History Graph

Daily Weather History Graph

Search for Another Location

Airport or City:

Trip Planner

Search our weather history database for the weather conditions in past years. The results will help you decide how hot, cold, wet, or windy it might be!

Date:

Astronomy

Jun. 10, 2012 Rise Set
Actual Time 5:19 AM CST 6:03 PM CST
Civil Twilight 4:56 AM CST 6:26 PM CST
Nautical Twilight 4:29 AM CST 6:54 PM CST
Astronomical Twilight 4:02 AM CST 7:21 PM CST
Moon 11:31 PM CST (6/10) 11:06 AM CST (6/10)
Length of Visible Light 13h 30m
Length of Day
12h 44m
Waning Gibbous, 57% of the Moon is Illuminated
Jun 10
Waning Gibbous
Jun 11
Last Quarter
Jun 19
New
Jun 26
First Quarter
Jul 3
Full

Hourly Weather History & Observations

Time (CST) Temp. Heat Index Dew Point Humidity Pressure Visibility Wind Dir Wind Speed Gust Speed Precip Events Conditions
6:00 AM 75 °F - 71 °F 84% 29.74 in 12 mi South 8.9 mph - -   Overcast
6:00 AM 75.2 °F - 71.6 °F 89% 29.78 in - South 4.6 mph - N/A   Clear
7:00 AM 77.0 °F - 71.6 °F 83% 29.78 in 6.2 mi South 4.6 mph - N/A   Mostly Cloudy
8:00 AM 80.6 °F 84.6 °F 71.6 °F 74% 29.79 in 6.2 mi SW 3.5 mph - N/A   Mostly Cloudy
9:00 AM 82 °F - 73 °F 68% 29.78 in 12 mi SSW 3.5 mph - -   Overcast
9:00 AM 82.4 °F 88.2 °F 73.4 °F 74% 29.82 in 6.2 mi SSW 3.5 mph - N/A   Mostly Cloudy
10:00 AM 84.2 °F 92.3 °F 75.2 °F 74% 29.82 in 6.2 mi Calm Calm - N/A   Mostly Cloudy
11:00 AM 87.8 °F 97.6 °F 75.2 °F 66% 29.80 in 6.2 mi SE 2.3 mph - N/A   Mostly Cloudy
12:00 PM 89 °F - 74 °F 52% 29.77 in 12 mi SSE 4.6 mph - -   Overcast
12:00 PM 89.6 °F 98.2 °F 73.4 °F 59% 29.78 in 6.2 mi SSE 4.6 mph - N/A   Mostly Cloudy
1:00 PM 87.8 °F 97.6 °F 75.2 °F 66% 29.77 in 6.2 mi West 4.6 mph - N/A   Scattered Clouds
2:00 PM 86.0 °F 95.1 °F 75.2 °F 70% 29.77 in 6.2 mi WNW 5.8 mph - N/A   Mostly Cloudy
3:00 PM 88 °F - 76 °F 60% 29.74 in 12 mi WSW 8.1 mph - -   Overcast
3:00 PM 87.8 °F 97.6 °F 75.2 °F 66% 29.76 in 6.2 mi WSW 8.1 mph - N/A   Scattered Clouds
4:00 PM 86.0 °F 95.1 °F 75.2 °F 70% 29.76 in 6.2 mi WSW 8.1 mph - N/A   Scattered Clouds
5:00 PM 86.0 °F 95.1 °F 75.2 °F 70% 29.76 in 6.2 mi West 6.9 mph - N/A   Mostly Cloudy
6:00 PM 83 °F - 75 °F 70% 29.74 in 12 mi WNW 4.6 mph - -   Overcast
6:00 PM 82.4 °F 89.5 °F 75.2 °F 79% 29.78 in 6.2 mi WNW 4.6 mph - N/A   Mostly Cloudy
7:00 PM 82.4 °F 89.5 °F 75.2 °F 79% 29.81 in 6.2 mi NNW 3.5 mph - N/A   Mostly Cloudy
8:00 PM 78.8 °F - 75.2 °F 89% 29.81 in 6.2 mi WSW 3.5 mph - N/A   Mostly Cloudy